XML Sitemap

This is a XML Sitemap which is supposed to be processed by search engines which follow the XML Sitemap standard like Ask.com, Bing, Google and Yahoo.
It was generated using the WordPress content management system and the Google Sitemap Generator Plugin by Arne Brachhold.
You can find more information about XML sitemaps on sitemaps.org and Google's list of sitemap programs.

URLPriorityChange frequencyLast modified (GMT)
https://explorersweb.com/2016/06/30/goprox27ing-the-worldx27s-most-iconic-ski-descent-2016-06-30-53791/60%Weekly2016-06-30 09:56
https://explorersweb.com/2016/06/30/summer-2016-majority-of-climbers-have-reached-base-camps-start-acclimatization-and-route-fixing-2016-06-30-53209/60%Weekly2016-06-30 09:46
https://explorersweb.com/2016/06/29/nestler-gasherbrum-vi-attempt-is-over-ralphnancy-move-to-praqpa-ri-2016-06-29-60484/60%Weekly2016-06-29 11:48
https://explorersweb.com/2016/06/29/everest-false-summit-claims-how-many-in-2016-2016-06-29-55415/60%Weekly2016-06-29 10:23
https://explorersweb.com/2016/06/29/the-last-colonizer-2016-06-28-61544/60%Weekly2016-06-28 12:05
https://explorersweb.com/2016/06/28/above-everest-0g-3d-print-test-telerobotic-docking-2016-06-28-60070/60%Weekly2016-06-28 11:41
https://explorersweb.com/2016/06/28/taking-back-their-world-record-interview-ivar-tollefsen-trond-hilde-and-robert-caspersen-2016-06-28-49303/60%Weekly2016-06-28 08:41
https://explorersweb.com/2016/06/27/pakistan-climbs-underway-2016-06-27-35492/60%Weekly2016-06-27 04:51
https://explorersweb.com/2016/06/26/kite-ski-ulvetanna-trip-on-offer-2016-06-26-61180/60%Weekly2016-06-26 11:59
https://explorersweb.com/2016/06/25/best-size-for-an-expedition-5-7-people-paper-suggestsp-2016-06-24-62860/60%Weekly2016-06-24 12:27
https://explorersweb.com/2016/06/24/this-week-on-pythom-2016-06-24-58817/60%Weekly2016-06-24 11:20
https://explorersweb.com/2016/06/23/photos-plus-twin-otters-in-punta-arenas-2016-06-23-28131/60%Weekly2016-06-23 02:48
https://explorersweb.com/2016/06/22/arnette-can-a-vegan-summit-everest-2016-06-22-51615/60%Weekly2016-06-22 09:20
https://explorersweb.com/2016/06/22/greenland-ski-world-record-breaking-news-2016-06-22-51364/60%Weekly2016-06-22 09:16
https://explorersweb.com/2016/06/22/south-pole-evacuation-plane-at-rothera-2016-06-22-51000/60%Weekly2016-06-22 09:10
https://explorersweb.com/2016/06/22/summer-2016-climbers-banned-deported-from-pakistan-2016-06-22-50950/60%Weekly2016-06-22 09:09
https://explorersweb.com/2016/06/22/kenn-borek-crew-and-patients-left-south-pole-2016-06-22-20068/60%Weekly2016-06-22 00:34
https://explorersweb.com/2016/06/21/kenn-borek-evacuation-plane-in-the-air-to-the-south-pole-2016-06-21-50513/60%Weekly2016-06-21 09:01
https://explorersweb.com/2016/06/20/kenn-borek-air-south-pole-rescue-update-2016-06-20-20976/60%Weekly2016-06-20 00:49
https://explorersweb.com/2016/06/19/airships-in-amunsdenx27s-slipstream-2016-06-19-51222/60%Weekly2016-06-19 09:13
https://explorersweb.com/2016/06/17/mounting-tension-in-the-himalaya-2016-06-17-54078/60%Weekly2016-06-17 10:01
https://explorersweb.com/2016/06/17/why-the-economist-thinks-everest-is-so-dangerousp-2016-06-17-52935/60%Weekly2016-06-17 09:42
https://explorersweb.com/2016/06/17/interview-amazon-legend-desert-bound-2016-06-16-71195/60%Weekly2016-06-16 14:46
https://explorersweb.com/2016/06/15/alaska-dispatches-why-subsistence-kayaking-is-special-2016-06-15-53458/60%Weekly2016-06-15 09:50
https://explorersweb.com/2016/06/15/summer-2016-climbing-teams-in-pakistan-heading-towards-mountains-2016-06-15-30322/60%Weekly2016-06-15 03:25
https://explorersweb.com/2016/06/15/kenn-borek-south-pole-evacuation-flight-launched-2016-06-15-456/60%Weekly2016-06-14 19:07
https://explorersweb.com/2016/06/14/shackleton-1916-the-rescue-attempts-2016-06-14-50375/60%Weekly2016-06-14 08:59
https://explorersweb.com/2016/06/13/rune-gjeldnes-recalls-sea-land-air-greenland-1996-2016-06-13-50184/60%Weekly2016-06-13 08:56
https://explorersweb.com/2016/06/13/ybw-one-dead-one-missing-overboard-from-yacht-platino-2016-06-13-29705/60%Weekly2016-06-13 03:15
https://explorersweb.com/2016/06/13/pythom-faster-growth-than-twitter-reach-beyond-fb-2016-06-09-75216/60%Weekly2016-06-12 13:39
https://explorersweb.com/2016/06/13/this-week-on-pythom-2016-06-12-62270/60%Weekly2016-06-12 12:17
https://explorersweb.com/2016/06/11/nestler-everest-season-as-normal-as-it-could-have-been-2016-06-10-61463/60%Weekly2016-06-10 12:04
https://explorersweb.com/2016/06/09/pakistan-laila-peak-claims-ski-mountaineer-2016-06-09-54547/60%Weekly2016-06-09 10:09
https://explorersweb.com/2016/06/09/the-fastest-solo-skipper-in-the-world-2016-06-09-53700/60%Weekly2016-06-09 09:55
https://explorersweb.com/2016/06/09/everest-2016-season-the-first-australian-woman-to-climb-everest-gives-a-different-perspective-2016-06-08-72051/60%Weekly2016-06-08 15:00
https://explorersweb.com/2016/06/09/crossing-greenland-viking-style-2016-06-08-62576/60%Weekly2016-06-08 12:22
https://explorersweb.com/2016/06/09/how-to-strap-a-canoe-on-a-float-plane-2016-06-08-62436/60%Weekly2016-06-08 12:20
https://explorersweb.com/2016/06/07/first-solo-of-the-infinite-spur-on-sultana-mt-foraker-in-alaska-2016-06-07-56132/60%Weekly2016-06-07 10:35
https://explorersweb.com/2016/06/07/ice-horizons-2016-successful-greenland-crossing-2016-06-07-45847/60%Weekly2016-06-07 07:44
https://explorersweb.com/2016/06/07/greenland-windsled-update-2016-06-07-43818/60%Weekly2016-06-07 07:10
https://explorersweb.com/2016/06/07/arnette-the-climbers-depression-abyss-2016-06-06-62364/60%Weekly2016-06-06 12:19
https://explorersweb.com/2016/06/07/bmc-donx27t-miss-6-classic-beginner-alpine-routesltpgt-2016-06-06-62255/60%Weekly2016-06-06 12:17
https://explorersweb.com/2016/06/06/nasa-enters-inflatable-space-hab-for-the-first-time-2016-06-06-61111/60%Weekly2016-06-06 11:58
https://explorersweb.com/2016/06/06/summer-2016-kickoff-k2-commercial-teams-nanga-parbat-is-back-and-some-interesting-expeditions-2016-06-06-7893/60%Weekly2016-06-05 21:11
https://explorersweb.com/2016/06/03/accident-of-aleksander-doba-on-the-ocean-ends-his-3rd-transatlantic-kayak-expedition-2016-06-02-82509/60%Weekly2016-06-02 17:55
https://explorersweb.com/2016/06/03/spring-2016-wrap-up-pre-monsoon-climbing-season-ends-2016-06-02-76612/60%Weekly2016-06-02 16:16
https://explorersweb.com/2016/06/03/this-week-at-pythom-2016-06-02-61725/60%Weekly2016-06-02 12:08
https://explorersweb.com/2016/06/03/himalaya-seasonx27s-results-in-numbers-2016-06-02-61459/60%Weekly2016-06-02 12:04
https://explorersweb.com/2016/06/02/conformity-reigns-on-social-media-2016-06-02-56105/60%Weekly2016-06-02 10:35
https://explorersweb.com/2016/06/02/solo-cycle-in-winter-russian-arctic-heads-up-2016-06-02-45623/60%Weekly2016-06-02 07:40
https://explorersweb.com/2016/06/02/south-pole-cycle-training-kate-leeming-on-greenland-2016-06-02-42733/60%Weekly2016-06-02 06:52
https://explorersweb.com/2016/06/01/why-what-amp-how-we-do-what-we-do-2016-06-01-47798/60%Weekly2016-06-01 08:16
https://explorersweb.com/2016/06/01/nestlerpythom-lammlex27s-double-attempt-big-e-no-gas-and-a-wife-2016-06-01-46309/60%Weekly2016-06-01 07:51
https://explorersweb.com/2016/06/01/juanito-oiarzabal-and-alberto-zerain-postpone-2x14x8000-project-for-next-year-2016-06-01-45215/60%Weekly2016-06-01 07:33
https://explorersweb.com/2016/06/01/a-long-overdue-heroic-story-of-rescue-high-on-everestp-2016-06-01-44525/60%Weekly2016-06-01 07:22